Powrót do katalogu

STARLINK-32444

AktywnyŁącznośćVLEO
NORAD 62073·PAYLOAD·🇺🇸 United States

Wystrzelony Nov 24, 2024 z Vandenberg Space Force Base

Loading…

Następne Przeloty (najbliższe 24 godziny)

TLE

ŚwieżeSource: CelesTrak SupGP

Epoka: Sep 15, 2026, 03:23 UTC

1 62073C 24217S   26258.14145833  .00029708  00000+0  87792-3 0  2585
2 62073  53.1590  30.4294 0001088  90.1792  17.8474 15.34369065    14

Śledź STARLINK-32444 w czasie rzeczywistym z AllMySat

Download on the App Store